"TOA5","AWS1","CR1000","7964","CR1000.Std.14","CPU:AWS1_114.CR1","64363","TBL110"
"TIMESTAMP","RECORD","Wind_spd_WVc(1)","Wind_spd_WVc(2)","Air_Temp_Avg","Humidity_Avg","SW_upper_Wm2_Avg","Rain_Tot","Press_Avg","Issui_Tot","Depth_cm","SR50A_Raw","Quality","Ground_Temp_Avg(1)","Ground_Temp_Avg(2)","SW_lower_Wm2_Avg","Albedo_Avg","SWC_per(1)","SWC_per(2)","Period(1)","Period(2)"
"TS","RN","","","","","","","","","","","","","","","","","","",""
"","","WVc","WVc","Avg","Avg","Avg","Tot","Avg","Tot","Smp","Smp","Smp","Avg","Avg","Avg","Avg","Smp","Smp","Smp","Smp"
"2016-03-09 00:00:00",225853,0.328,301.2,3.721,58.2,0,0,864.4939,0,14.7,3.012,192,0.682,1.116,0.09097977,0,54.24,65.03,34.33,36.81
"2016-03-09 00:10:00",225854,0.393,32.73,3.683,61.25,0,0,864.4368,0,14.64,3.014,192,0.694,1.118,0,0,54.24,64.97,34.33,36.8
"2016-03-09 00:20:00",225855,0.106,220.6,3.489,64.81,0,0,864.4391,0,14.69,3.014,193,0.704,1.116,0,0,54.24,64.97,34.33,36.8
"2016-03-09 00:30:00",225856,0.372,219.9,3.348,63.95,0,0,864.2696,0,14.48,3.017,191,0.704,1.115,0,0,54.24,64.97,34.33,36.8
"2016-03-09 00:40:00",225857,0.169,240.6,3.214,65.61,0,0,864.2366,0,14.54,3.016,193,0.68,1.114,0,0,54.18,64.97,34.32,36.8
"2016-03-09 00:50:00",225858,0.306,213.3,3.246,65.15,0,0,864.2023,0,14.55,3.017,193,0.683,1.119,0,0,54.18,63.81,34.32,36.54
"2016-03-09 01:00:00",225859,0.219,179.9,3.066,67.2,0,0,864.2861,0,14.58,3.017,192,0.683,1.117,0,0,54.18,63.75,34.32,36.53
"2016-03-09 01:10:00",225860,0.312,206.3,3.126,65.74,0,0,864.2123,0,14.52,3.018,191,0.681,1.126,0.05686254,0,54.18,63.75,34.32,36.53
"2016-03-09 01:20:00",225861,0.311,184.5,3.029,66.59,0,0,864.148,0,14.48,3.018,191,0.687,1.146,0,0,54.18,63.75,34.32,36.53
"2016-03-09 01:30:00",225862,0.192,236.6,3.117,65.45,0,0,864.0429,0,14.68,3.016,194,0.687,1.149,0,0,54.18,63.75,34.32,36.53
"2016-03-09 01:40:00",225863,0.253,120.6,3.16,65.66,0,0,863.7206,0,14.49,3.02,192,0.693,1.148,0.03411753,0,54.18,63.69,34.32,36.51
"2016-03-09 01:50:00",225864,0.319,304.4,2.592,76.84,0,0,863.592,0,14.6,3.021,192,0.7,1.153,0,0,54.18,63.69,34.32,36.51
"2016-03-09 02:00:00",225865,0.42,322,2.157,89.2,0,0,863.5984,0,14.59,3.023,193,0.704,1.167,0,0,54.12,63.63,34.3,36.5
"2016-03-09 02:10:00",225866,0.18,320.1,1.912,96.9,0,0,863.4531,0,14.56,3.024,193,0.717,1.184,0,0,54.12,63.57,34.3,36.49
"2016-03-09 02:20:00",225867,0.127,314.7,1.759,100,0,0,863.2634,0,14.54,3.025,192,0.72,1.179,0,0,54.12,63.57,34.3,36.49
"2016-03-09 02:30:00",225868,0.285,293.1,1.598,100,0,0,863.4404,0,14.61,3.025,193,0.721,1.193,0,0,54.12,63.51,34.3,36.47
"2016-03-09 02:40:00",225869,0.111,317.8,1.5,100,0,0,863.2549,0,14.6,3.026,193,0.724,1.184,0,0,54.12,63.51,34.3,36.47
"2016-03-09 02:50:00",225870,0.04,261.1,1.469,100,0,0,863.4531,0,14.58,3.026,193,0.728,1.194,0,0,54.07,63.45,34.29,36.46
"2016-03-09 03:00:00",225871,0.093,38.56,1.384,100,0,0,863.3245,0,14.55,3.027,192,0.725,1.18,0,0,54.07,63.45,34.29,36.46
"2016-03-09 03:10:00",225872,0.036,354.2,1.344,100,0,0,863.3456,0,14.62,3.027,194,0.724,1.168,0,0,54.07,63.39,34.29,36.44
"2016-03-09 03:20:00",225873,0.122,326.9,1.251,100,0,0,863.5099,0,14.52,3.028,192,0.747,1.177,0,0,54.07,63.32,34.29,36.43
"2016-03-09 03:30:00",225874,0,0,1.239,100,0,0,863.493,0,14.52,3.028,192,0.695,1.167,0,0,54.01,63.32,34.27,36.43
"2016-03-09 03:40:00",225875,0.354,302.6,1.174,100,0,0,863.4319,0,14.59,3.028,188,0.724,1.166,0,0,54.01,63.32,34.27,36.43
"2016-03-09 03:50:00",225876,0.295,255.8,1.116,100,0,0,863.5457,0,14.66,3.028,194,0.731,1.17,0,0,54.01,63.26,34.27,36.42
"2016-03-09 04:00:00",225877,0.321,293.6,0.969,100,0,0,863.5499,0,14.56,3.029,189,0.749,1.17,0,0,54.01,63.32,34.27,36.43
"2016-03-09 04:10:00",225878,0,0,0.995,100,0,0,863.7059,0,14.52,3.029,188,0.749,1.176,0,0,54.01,63.26,34.27,36.42
"2016-03-09 04:20:00",225879,0.128,353.4,1.011,100,0,0,863.6047,0,14.56,3.029,188,0.742,1.171,0,0,53.95,63.26,34.26,36.42
"2016-03-09 04:30:00",225880,0.038,133.4,0.962,100,0,0,863.4319,0,14.61,3.029,187,0.716,1.144,0.1137251,0,53.95,63.2,34.26,36.4
"2016-03-09 04:40:00",225881,0.281,300.3,0.837,100,0,0,863.4489,0,14.54,3.03,187,0.721,1.156,0.2274502,0,53.95,63.2,34.26,36.4
"2016-03-09 04:50:00",225882,0.249,301.5,0.725,100,0,0,863.3477,0,14.56,3.031,192,0.701,1.13,0.2274502,0,53.95,63.2,34.26,36.4
"2016-03-09 05:00:00",225883,0.296,292.8,0.508,100,0,0,863.2739,0,14.6,3.031,192,0.712,1.14,0.2274502,0,53.95,63.14,34.26,36.39
"2016-03-09 05:10:00",225884,0.277,293.6,0.441,100,0,0,863.3856,0,14.68,3.031,191,0.688,1.125,0.2274502,0,53.95,63.08,34.26,36.38
"2016-03-09 05:20:00",225885,0.011,281.6,0.431,100,0,0,863.5099,0,14.2,3.036,206,0.682,1.123,0.2274502,0,53.95,63.08,34.26,36.38
"2016-03-09 05:30:00",225886,0,0,0.32,100,0,0,863.6532,0,14.55,3.033,170,0.695,1.131,0.2274502,0,53.9,63.08,34.25,36.38
"2016-03-09 05:40:00",225887,0.247,309.3,0.261,100,0,0,863.689,0.5,14.6,3.032,192,0.678,1.125,0.2198685,0,53.9,63.02,34.25,36.36
"2016-03-09 05:50:00",225888,0.549,150.1,0.319,100,0,0,863.4993,0,14.72,3.031,193,0.678,1.139,0.185751,0,53.9,63.02,34.25,36.36
"2016-03-09 06:00:00",225889,0.465,206.7,0.356,100,0,0,863.4531,0.5,15.18,3.026,192,0.678,1.133,0.2274502,0,53.9,63.02,34.25,36.36
"2016-03-09 06:10:00",225890,0.288,348.2,0.461,100,0,0,863.4551,0.5,15.25,3.025,170,0.678,1.145,0.439737,0,53.9,62.96,34.25,36.35
"2016-03-09 06:20:00",225891,0.123,307.5,0.4,100,0.07076928,0,863.4489,0,15.15,3.027,170,0.678,1.149,0.5951613,0.787,53.9,63.02,34.25,36.36
"2016-03-09 06:30:00",225892,0,0,0.246,100,0.4875217,0,863.3962,0,15.15,3.027,172,0.678,1.15,0.7202589,1.837,53.84,62.96,34.23,36.35
"2016-03-09 06:40:00",225893,0.062,172,0.302,100,2.064104,0,863.4531,0.5,15.12,3.027,171,0.678,1.147,1.614896,0.798,53.84,62.9,34.23,36.34
"2016-03-09 06:50:00",225894,0,0,0.366,100,2.547694,0,863.3582,0,15.1,3.026,170,0.678,1.146,2.062215,0.821,53.9,62.9,34.25,36.34
"2016-03-09 07:00:00",225895,0.107,170.1,0.591,100,2.280343,0,863.4973,0,15.21,3.024,170,0.678,1.138,2.26692,0.994,53.84,62.9,34.23,36.34
"2016-03-09 07:10:00",225896,0.26,315.1,0.718,100,4.580345,0,863.4636,0,15.06,3.026,171,0.681,1.131,3.464824,0.789,53.84,62.9,34.23,36.34
"2016-03-09 07:20:00",225897,0.046,319.4,0.549,100,10.43847,0,863.4572,0,15.08,3.027,170,0.679,1.128,5.66351,0.549,53.84,62.84,34.23,36.32
"2016-03-09 07:30:00",225898,0,0,0.833,100,10.25761,0,863.4531,0,15.28,3.019,170,0.678,1.129,5.71279,0.557,53.84,62.9,34.23,36.34
"2016-03-09 07:40:00",225899,0,0,2.176,100,11.5118,0,863.5373,0.5,15.06,3.016,174,0.684,1.112,7.577882,0.667,53.78,62.9,34.22,36.34
"2016-03-09 07:50:00",225900,0.346,316.1,2.264,100,12.53796,0,863.6721,0,14.5,3.023,170,0.711,1.119,7.06991,0.571,53.78,62.84,34.22,36.32
"2016-03-09 08:00:00",225901,0,0,1.427,100,20.21642,0,863.5184,0,15.13,3.021,170,0.707,1.117,9.640097,0.478,53.84,62.84,34.23,36.32
"2016-03-09 08:10:00",225902,0.02,182.1,1.959,100,27.46241,0,863.4636,0,14.85,3.02,187,0.731,1.131,13.18074,0.481,53.84,62.84,34.23,36.32
"2016-03-09 08:20:00",225903,0.071,63.1,2.315,100,23.93967,0,863.4763,0.5,15.21,3.014,170,0.725,1.161,11.97904,0.501,53.78,62.78,34.22,36.31
"2016-03-09 08:30:00",225904,0.002,299.1,2.414,100,41.45507,0,863.4404,0,14.87,3.02,192,0.723,1.168,19.13614,0.464,53.78,62.78,34.22,36.31
"2016-03-09 08:40:00",225905,0.147,152.4,2.219,100,39.19439,0,863.4489,0,15.44,3.012,192,0.721,1.177,17.73732,0.453,53.78,62.78,34.22,36.31
"2016-03-09 08:50:00",225906,0.315,154.3,2.774,100,49.63286,0,863.4531,0,15.07,3.013,192,0.715,1.19,21.77456,0.439,53.78,62.72,34.22,36.3
"2016-03-09 09:00:00",225907,0.107,180.9,3.049,100,41.46294,0,863.4531,0.5,15.13,3.012,190,0.694,1.185,17.64255,0.425,53.78,62.72,34.22,36.3
"2016-03-09 09:10:00",225908,0.303,169.9,3.099,100,60.07133,0,863.4531,0,15.13,3.012,187,0.683,1.177,24.73521,0.412,53.78,62.72,34.22,36.3
"2016-03-09 09:20:00",225909,0.188,160.9,3.085,100,61.88774,0,863.4531,0,15.1,3.012,187,0.703,1.153,25.33416,0.409,53.78,62.72,34.22,36.3
"2016-03-09 09:30:00",225910,0.383,158.1,3.131,100,58.38859,0,863.3962,0.5,14.86,3.014,187,0.716,1.136,24.44711,0.418,53.78,62.72,34.22,36.3
"2016-03-09 09:40:00",225911,0.332,183.5,3.238,100,62.04107,0,863.4572,0,14.78,3.014,179,0.757,1.124,26.46004,0.426,53.78,62.72,34.22,36.3
"2016-03-09 09:50:00",225912,0.406,351.6,2.209,100,72.58569,0,863.4572,0,15,3.022,179,0.754,1.123,30.91048,0.426,53.78,62.72,34.22,36.3
"2016-03-09 10:00:00",225913,0.342,106.8,2.28,100,78.97852,0,863.4531,0,15.12,3.014,192,0.764,1.14,33.98106,0.43,53.84,62.72,34.23,36.3
"2016-03-09 10:10:00",225914,0.454,132.2,2.893,100,71.88586,0,863.3392,0.5,14.68,3.016,190,0.764,1.114,31.04695,0.432,53.78,62.72,34.22,36.3
"2016-03-09 10:20:00",225915,0.23,153.2,3.231,100,79.55647,0,863.1728,0,14.99,3.012,192,0.764,1.119,34.09478,0.428,53.84,62.78,34.23,36.31
"2016-03-09 10:30:00",225916,0.08,69.65,3.495,100,99.86726,0,862.9789,0,14.84,3.012,192,0.764,1.113,42.30573,0.424,53.9,62.78,34.25,36.31
"2016-03-09 10:40:00",225917,0,0,3.696,100,87.07767,0,862.7662,0.5,14.68,3.012,191,0.759,1.111,36.4034,0.418,53.9,62.84,34.25,36.32
"2016-03-09 10:50:00",225918,0.048,170.5,3.78,100,75.92757,0,862.6832,0,14.6,3.013,191,0.738,1.111,31.78616,0.419,53.95,62.84,34.26,36.32
"2016-03-09 11:00:00",225919,0.063,213.7,3.783,100,78.39664,0,862.463,0,14.72,3.012,191,0.72,1.111,33.07884,0.422,54.01,62.9,34.27,36.34
"2016-03-09 11:10:00",225920,0,0,3.846,100,88.16976,0,862.3292,0.5,14.55,3.013,192,0.688,1.108,36.83897,0.418,54.07,62.96,34.29,36.35
"2016-03-09 11:20:00",225921,0.014,199.7,3.934,100,109.475,0,862.1695,0,14.5,3.014,191,0.689,1.108,45.69806,0.417,54.12,63.02,34.3,36.36
"2016-03-09 11:30:00",225922,0.383,319.8,3.229,100,90.48967,0,862.2762,0,14.56,3.021,190,0.689,1.109,37.83228,0.418,54.12,63.08,34.3,36.38
"2016-03-09 11:40:00",225923,0.337,327.9,1.923,100,65.96597,0,862.3615,0.5,14.59,3.026,192,0.7,1.1,27.67572,0.419,54.24,63.2,34.33,36.4
"2016-03-09 11:50:00",225924,0.148,4.142,1.419,100,62.88913,0,862.3555,0.5,14.49,3.027,176,0.733,1.09,26.36692,0.419,54.18,63.32,34.32,36.43
"2016-03-09 12:00:00",225925,0.102,88.5,1.801,100,67.89052,0,862.3549,0,14.57,3.023,174,0.731,1.078,28.91281,0.426,54.29,63.39,34.34,36.44
"2016-03-09 12:10:00",225926,0.181,103.2,2.219,100,63.9547,0,862.2578,0.5,14.62,3.021,183,0.727,1.075,27.44182,0.429,54.35,63.45,34.36,36.46
"2016-03-09 12:20:00",225927,0.116,141,2.391,100,56.67115,0,862.1075,0.5,14.67,3.02,190,0.732,1.078,24.69796,0.436,54.41,63.63,34.37,36.5
"2016-03-09 12:30:00",225928,0.02,197.1,2.531,100,49.90562,0,861.9805,0.5,14.56,3.02,192,0.73,1.078,21.83621,0.438,54.41,63.87,34.37,36.55
"2016-03-09 12:40:00",225929,0.081,159.4,2.561,100,51.89473,0,861.8525,0.5,14.48,3.021,191,0.733,1.078,22.95814,0.442,54.52,64.12,34.4,36.61
"2016-03-09 12:50:00",225930,0.554,173.3,2.237,100,49.2454,0,861.7924,0.5,14.56,3.023,191,0.732,1.079,22.15091,0.45,54.63,64.66,34.42,36.73
"2016-03-09 13:00:00",225931,0.253,156.2,1.992,100,46.39045,0,861.6508,0.5,14.56,3.024,189,0.727,1.076,21.04748,0.454,54.69,65.77,34.44,36.97
"2016-03-09 13:10:00",225932,0.483,156.2,1.697,100,48.18082,0,861.597,0.5,14.54,3.026,190,0.729,1.091,22.50377,0.467,54.75,66.39,34.45,37.11
"2016-03-09 13:20:00",225933,0.179,121.9,1.508,100,50.0036,0,861.4275,0.5,14.58,3.026,189,0.723,1.099,23.50947,0.47,54.8,67.38,34.46,37.33
"2016-03-09 13:30:00",225934,0.14,104.9,1.369,100,48.83285,0,861.2844,0,14.53,3.027,192,0.71,1.109,22.77447,0.466,54.86,67.57,34.48,37.37
"2016-03-09 13:40:00",225935,0.131,36.39,1.329,100,45.84959,0,861.1917,0.5,14.62,3.027,191,0.686,1.133,21.9674,0.479,54.97,67.51,34.51,37.35
"2016-03-09 13:50:00",225936,0.02,31.67,1.292,100,54.14188,0,860.9962,0.5,14.62,3.027,192,0.686,1.156,25.35286,0.469,55.03,67.57,34.52,37.37
"2016-03-09 14:00:00",225937,0,0,1.31,100,52.35271,0,860.9086,0.5,14.62,3.027,191,0.683,1.175,23.90463,0.457,55.03,67.57,34.52,37.37
"2016-03-09 14:10:00",225938,0,0,1.295,100,48.89326,0,860.889,0.5,14.53,3.027,192,0.693,1.182,21.49006,0.439,55.09,67.57,34.53,37.37
"2016-03-09 14:20:00",225939,0,0,1.464,100,42.9804,0,860.918,0.5,14.58,3.026,192,0.702,1.191,18.71909,0.436,55.09,67.63,34.53,37.38
"2016-03-09 14:30:00",225940,0.39,301.8,1.381,100,38.27042,0,860.9599,0,14.65,3.026,192,0.717,1.194,16.98293,0.444,55.15,67.63,34.55,37.38
"2016-03-09 14:40:00",225941,0.002,291,1.398,100,37.80652,0,860.9246,0.5,14.63,3.026,183,0.73,1.196,17.10046,0.452,55.2,67.63,34.56,37.38
"2016-03-09 14:50:00",225942,0.054,353.3,1.376,100,37.45268,0,860.971,0.5,14.65,3.026,189,0.729,1.196,17.52883,0.468,55.2,67.63,34.56,37.38
"2016-03-09 15:00:00",225943,0.089,34.58,1.259,100,38.46704,0,861.1122,0.5,14.62,3.027,183,0.727,1.19,18.73052,0.487,55.2,67.69,34.56,37.39
"2016-03-09 15:10:00",225944,0,0,1.182,100,36.42259,0,861.0406,0.5,14.57,3.028,192,0.729,1.187,17.9534,0.493,55.26,67.63,34.57,37.38
"2016-03-09 15:20:00",225945,0.069,71.72,1.164,100,33.58396,0,860.9626,0,14.64,3.028,174,0.724,1.178,16.00112,0.476,55.26,67.63,34.57,37.38
"2016-03-09 15:30:00",225946,0.347,51.54,1.01,100,32.84481,0,860.853,0.5,14.72,3.027,174,0.681,1.151,15.17851,0.462,55.26,67.63,34.57,37.38
"2016-03-09 15:40:00",225947,0.261,17.69,1.105,100,29.24344,0,860.6339,0.5,14.67,3.027,174,0.682,1.134,12.89643,0.441,55.26,67.63,34.57,37.38
"2016-03-09 15:50:00",225948,0.586,18.33,1.118,100,25.41797,0,860.4211,0,14.65,3.027,173,0.678,1.12,11.14127,0.438,55.26,67.63,34.57,37.38
"2016-03-09 16:00:00",225949,0.611,14.92,1.299,100,21.98959,0,860.419,0.5,14.78,3.024,174,0.678,1.113,9.905456,0.451,55.26,67.63,34.57,37.38
"2016-03-09 16:10:00",225950,0.569,327.8,1.638,100,19.73284,0,860.419,0,14.76,3.023,174,0.678,1.11,9.162451,0.465,55.26,67.63,34.57,37.38
"2016-03-09 16:20:00",225951,0.52,325,1.594,100,15.91916,0,860.596,0.5,14.62,3.027,174,0.678,1.11,7.668862,0.482,55.26,67.63,34.57,37.38
"2016-03-09 16:30:00",225952,0.13,328.5,1.11,100,11.5118,0,860.6719,1,14.64,3.028,170,0.678,1.111,6.425468,0.561,55.26,67.63,34.57,37.38
"2016-03-09 16:40:00",225953,0.642,192.3,1.136,100,10.47779,0,860.6697,0.5,14.8,3.025,170,0.678,1.116,5.71279,0.545,55.26,67.63,34.57,37.38
"2016-03-09 16:50:00",225954,1.082,189.3,1.485,100,11.43317,0,860.6276,0,14.76,3.023,170,0.679,1.129,5.360243,0.47,55.26,67.63,34.57,37.38
"2016-03-09 17:00:00",225955,0.781,93.6,1.919,100,9.506673,0,860.4232,0.5,14.75,3.021,170,0.678,1.129,4.681683,0.493,55.26,67.63,34.57,37.38
"2016-03-09 17:10:00",225956,0.298,95.5,2.16,100,7.591971,0,860.419,0,14.7,3.021,169,0.678,1.128,3.635412,0.478,55.32,67.63,34.59,37.38
"2016-03-09 17:20:00",225957,0.515,303,2.099,100,5.378465,0,860.5981,0,14.69,3.023,170,0.678,1.12,2.304828,0.428,55.32,67.63,34.59,37.38
"2016-03-09 17:30:00",225958,0.06,300.9,1.705,100,4.128208,0,860.6782,0.5,14.58,3.026,170,0.678,1.125,1.603524,0.385,55.32,67.63,34.59,37.38
"2016-03-09 17:40:00",225959,0.468,299,1.09,100,1.494018,0,860.7667,0,14.48,3.032,170,0.678,1.145,0.4132012,0.252,55.26,67.63,34.57,37.38
"2016-03-09 17:50:00",225960,0.737,294.2,0.16,100,0.02752139,0,861.1227,0,14.69,3.033,170,0.678,1.128,0,0,55.26,67.63,34.57,37.38
"2016-03-09 18:00:00",225961,0.328,287.7,-0.003,100,0,0,861.2239,0,14.71,3.033,170,0.684,1.122,0,0,55.26,67.63,34.57,37.38
"2016-03-09 18:10:00",225962,0.482,309.6,-0.111,100,0.1140172,0,861.3672,0,14.69,3.034,170,0.688,1.114,0,0,55.26,67.63,34.57,37.38
"2016-03-09 18:20:00",225963,0.271,18.04,-0.047,100,0.1336753,0,861.4304,0,14.59,3.034,171,0.678,1.11,0,0,55.2,67.63,34.56,37.38
"2016-03-09 18:30:00",225964,0.317,24.85,-0.136,100,0.2123079,0,861.4072,0.5,14.79,3.033,170,0.69,1.114,0,0,55.2,67.63,34.56,37.38
"2016-03-09 18:40:00",225965,0.914,105.3,0.093,100,0.04717952,0,861.3819,0,14.8,3.029,170,0.679,1.105,0.2653585,0,55.15,67.63,34.55,37.38
"2016-03-09 18:50:00",225966,0.888,60.21,0.85,100,0.05111115,0,861.3461,0.5,14.67,3.028,170,0.658,1.108,1.72104,1.43,55.09,67.63,34.53,37.38
"2016-03-09 19:00:00",225967,0.409,165.2,0.568,100,0.1100856,0,861.3524,0,14.7,3.03,170,0.645,1.108,0.371502,0.45,55.09,67.63,34.53,37.38
"2016-03-09 19:10:00",225968,0.34,179.6,0.803,100,0.6408551,0,861.4304,0.5,14.74,3.027,170,0.652,1.105,0.5079721,0.867,55.09,67.63,34.53,37.38
"2016-03-09 19:20:00",225969,0.072,164.8,1.526,100,1.022223,0,861.4304,0,14.86,3.022,170,0.651,1.109,0.716468,0.702,55.09,67.63,34.53,37.38
"2016-03-09 19:30:00",225970,0.26,125.4,2.022,100,0.7941886,0,861.3946,0.5,15.08,3.016,170,0.667,1.104,0.739213,0.996,54.97,67.57,34.51,37.37
"2016-03-09 19:40:00",225971,0.77,153.9,2.521,100,0.2201711,0,861.1776,0.5,14.76,3.018,170,0.684,1.077,0.3032669,0.64,55.03,67.57,34.52,37.37
"2016-03-09 19:50:00",225972,0.965,145.5,2.767,100,0,0,860.9668,0,14.62,3.018,170,0.679,1.077,0.5420896,0,54.97,67.63,34.51,37.38
"2016-03-09 20:00:00",225973,1.033,146.3,2.764,100,0,0,860.9225,0.5,14.77,3.017,170,0.678,1.083,0.579998,0,54.97,67.57,34.51,37.37
"2016-03-09 20:10:00",225974,0.563,164.1,2.829,100,0,0,860.9141,0,14.5,3.019,171,0.678,1.073,0.5686255,0,55.03,67.57,34.52,37.37
"2016-03-09 20:20:00",225975,0.661,313.1,1.425,98.2,0.01965814,0,860.8783,0,14.26,3.038,170,0.678,1.081,0.1592151,0.193,55.03,67.63,34.52,37.38
"2016-03-09 20:30:00",225976,0.681,306.2,-0.452,100,0,0,860.8635,0,14.63,3.037,170,0.678,1.106,0,0,55.09,67.63,34.53,37.38
"2016-03-09 20:40:00",225977,0.622,313.8,-0.729,100,0,0,860.9542,0,14.42,3.04,170,0.655,1.088,0,0,55.09,67.63,34.53,37.38
"2016-03-09 20:50:00",225978,0.404,333.6,-0.764,100,0,0,861.1481,0.5,14.62,3.038,178,0.64,1.062,0,0,55.09,67.63,34.53,37.38
"2016-03-09 21:00:00",225979,0.548,134.1,-0.71,100,0,0,860.8067,0,14.78,3.035,170,0.642,1.025,0,0,55.03,67.63,34.52,37.38
"2016-03-09 21:10:00",225980,0.956,43.97,-0.225,100,0,0,860.695,0,14.59,3.035,170,0.647,1.026,0.03032669,0,55.09,67.63,34.53,37.38
"2016-03-09 21:20:00",225981,0.531,123.7,-0.348,100,0,0,860.5117,0,14.55,3.037,170,0.654,1.028,0,0,55.03,67.63,34.52,37.38
"2016-03-09 21:30:00",225982,0.21,190.5,-0.236,100,0,0,860.4506,0,14.49,3.036,170,0.653,1.034,0.2994761,0,55.03,67.57,34.52,37.37
"2016-03-09 21:40:00",225983,0.363,332.2,-0.282,100,0,0,860.6445,0,14.48,3.039,170,0.668,1.038,0.1364701,0,54.97,67.57,34.51,37.37
"2016-03-09 21:50:00",225984,0.33,333.5,-0.902,100,0,0,860.8488,0,14.61,3.041,174,0.674,1.057,0,0,54.97,67.57,34.51,37.37
"2016-03-09 22:00:00",225985,0.128,328.3,-0.988,100,0,0,860.5033,0,14.54,3.04,170,0.676,1.066,0,0,54.97,67.57,34.51,37.37
"2016-03-09 22:10:00",225986,0.273,340.7,-1.174,100,0,0,860.4675,0,14.74,3.039,174,0.677,1.066,0,0,54.92,67.57,34.49,37.37
"2016-03-09 22:20:00",225987,0.282,255.3,-1.039,100,0.01572651,0,860.1915,0,14.46,3.042,170,0.674,1.066,0.1667968,0.064,54.86,67.51,34.48,37.35
"2016-03-09 22:30:00",225988,0.262,350.7,-1.475,100,0,0,860.2421,0,14.45,3.045,170,0.667,1.066,0.003790837,0,54.86,67.57,34.48,37.37
"2016-03-09 22:40:00",225989,0.37,340.7,-1.939,100,0,0,860.5475,0,14.34,3.049,170,0.643,1.067,0,0,54.86,67.57,34.48,37.37
"2016-03-09 22:50:00",225990,0.387,329.5,-2.377,100,0,0,860.7793,0,14.44,3.049,174,0.63,1.071,0.007581844,0,54.86,67.57,34.48,37.37
"2016-03-09 23:00:00",225991,0.367,295.5,-2.336,100,0,0,861.2958,0,14.63,3.047,170,0.654,1.075,0.1478484,0,54.86,67.57,34.48,37.37
"2016-03-09 23:10:00",225992,0.466,309.7,-2.619,100,0.003931951,0,861.1846,0,14.72,3.048,187,0.679,1.094,0.07203174,0.016,54.8,67.51,34.46,37.35
"2016-03-09 23:20:00",225993,0.388,353.1,-2.593,100,0.1769485,0,860.935,0,14.47,3.05,183,0.691,1.128,0.1099499,0.466,54.75,67.51,34.45,37.35
"2016-03-09 23:30:00",225994,0.359,359.2,-2.61,100,0.1258328,0,860.692,0,14.56,3.049,186,0.696,1.131,0.07962068,0.337,54.69,67.44,34.44,37.34
"2016-03-09 23:40:00",225995,0.452,350.6,-2.774,100,0.03932344,0,860.7,0,14.43,3.052,174,0.696,1.151,0.01516609,0.048,54.69,67.38,34.44,37.33
"2016-03-09 23:50:00",225996,0.491,342.5,-3.047,100,0,0,860.8655,0,14.39,3.054,170,0.699,1.167,0,0,54.69,66.82,34.44,37.2
